Location: Pianadetto
(44.4000°N, 10.1000°E)
Time: 01:49:20
(UTC+00:00)

NPP - Pass Details

Date: 26 May 2022
Orbit: 826 x 828 km, 98.7° (Epoch: 26 June)

Event Time Altitude Azimuth Distance (km) Brightness Sun altitude
Rises 01:49:36 0° 8° (N) 3,377 7.9 -15.8°
Reaches altitude 10° 01:52:02 10° 2° (N) 2,439 6.9 -15.5°
Maximum altitude 01:57:07 44° 292° (WNW) 1,136 4.2 -14.9°
Enters shadow 02:00:20 21° 231° (SW) 1,773 4.8 -14.6°
